Regional Weather Roundup
Issued by NWS

Home | Current Version | Previous Version | Text Only | Print | Product List | Glossary Off
Versions: 1 2 3 4 5 6 7 8 9 10 11 12 13 14 15 16 17 18 19 20 21 22 23 24 25 26 27 28 29 30 31 32 33 34 35 36 37 38 39 40 41 42 43 44 45 46 47 48 49 50

000
ASUS44 KMEG 162100
RWRTN
TENNESSEE HOURLY STATE WEATHER ROUNDUP
NATIONAL WEATHER SERVICE MEMPHIS TN
300 PM CST FRI FEB 16 2018

TNZ002-004-019-021-049-052-054-088>092-162200-
WEST TENNESSEE

CITY           SKY/WX    TMP DP  RH WIND       PRES   REMARKS
MEMPHIS INTL   CLOUDY    46  39  76 N17       30.26R
NWS MEMPHIS      N/A     45 N/A N/A MISG        N/A
JACKSON        CLOUDY    45  42  89 N13       30.26R
DYERSBURG      CLOUDY    44  37  76 N13       30.29R
$$

TNZ008-025-027-028-033-062-065-066-162200-
NORTH MIDDLE TENNESSEE

CITY           SKY/WX    TMP DP  RH WIND       PRES   REMARKS
NASHVILLE      CLOUDY    45  42  89 N12       30.23R FOG
CLARKSVILLE    CLOUDY    43  36  76 N16       30.25S
SMYRNA         CLOUDY    47  44  90 N12       30.22R
CROSSVILLE     CLOUDY    45  42  89 N7        30.13R
$$

TNZ061-075-076-078-094-096-097-162200-
SOUTH MIDDLE TENNESSEE

CITY           SKY/WX    TMP DP  RH WIND       PRES   REMARKS
WINCHESTER     CLOUDY    46  45  93 N9        30.16R
$$

TNZ017-018-042-046-047-162200-
NORTHEAST TENNESSEE

CITY           SKY/WX    TMP DP  RH WIND       PRES   REMARKS
TRI CITIES     LGT RAIN  55  54  96 VRB5      30.04R FOG
$$

TNZ012-013-036-069-073-074-162200-
CENTRAL EAST TENNESSEE

CITY           SKY/WX    TMP DP  RH WIND       PRES   REMARKS
KNOXVILLE      RAIN      50  49  96 NE9       30.10R VSB 1
OAK RIDGE      LGT RAIN  50  47  89 CALM      30.11R
$$

TNZ083-085-099-162200-
SOUTHEAST TENNESSEE

CITY           SKY/WX    TMP DP  RH WIND       PRES   REMARKS
CHATTANOOGA    PTSUNNY   56  49  77 N9        30.10R
$$

SKY/WX REPORTED AS FAIR MEANS FEW OR NO CLOUDS BELOW
12 THOUSAND FEET.





USA.gov is the U.S. government's official web portal to all federal, state and local government web resources and services.